Hourly Data Report for November 03, 2019

All times are specified in Local Standard Time (LST). Add 1 hour to adjust for Daylight Saving Time where and when it is observed.

EUREKA CLIMATE
NUNAVUT
Current Station Operator: ECCC - MSC

79°59'21.000" N
85°56'02.000" W
10.00 m
2401199
71613
NEK

Download Data

Hourly Data (November 2019)
Hourly Data Report for November 3, 2019
TIME Temp Definition
°C
Dew Point Definition
°C
Rel Hum Definition
%
Wind Dir Definition
10's deg

Wind Spd Definition
km/h
Visibility Definition
km
Stn Press Definition
kPa
Hmdx Definition


Wind Chill Definition


Weather Definition


00:00 -23.6 -26.3 78 36 8   101.22   -30 LegendNANA
01:00 -22.7 -25.5 78 31 8   101.23   -29 LegendNANA
02:00 -25.4 -27.9 79 2 7   101.23   -32 LegendNANA
03:00 -25.8 -28.5 78 6 4   101.25   -30 LegendNANA
04:00 -25.3 -27.7 80 4 4   101.26   -29 LegendNANA
05:00 -26.0 -28.4 80 7 2   101.26   -28 LegendNANA
06:00 -26.7 -29.2 79 3 6   101.27   -33 LegendNANA
07:00 -26.4 -28.8 80 5 6   101.26   -32 LegendNANA
08:00 -26.3 -28.7 80 7 3   101.27   -29 LegendNANA
09:00 -26.6 -28.9 81 8 4   101.28   -31 LegendNANA
10:00 -27.6 -30.1 79 3 7   101.31   -34 LegendNANA
11:00 -27.6 -30.2 79 3 7   101.31   -34 LegendNANA
12:00 -26.7 -29.2 79 2 6   101.31   -33 LegendNANA
13:00 -25.9 -28.4 80 1 5   101.32   -31 LegendNANA
14:00 -25.7 -28.0 81 7 3   101.33   -29 LegendNANA
15:00 -26.6 -29.0 80 3 8   101.35   -34 LegendNANA
16:00 -27.2 -29.8 79 2 11   101.37   -36 LegendNANA
17:00 -26.6 -29.1 79 2 11   101.38   -36 LegendNANA
18:00 -25.9 -28.4 79 2 7   101.38   -33 LegendNANA
19:00 -25.9 -28.4 79 4 4   101.38   -30 LegendNANA
20:00 -26.6 -29.1 79 4 6   101.38   -33 LegendNANA
21:00 -27.1 -29.8 78 6 5   101.42   -32 LegendNANA
22:00 -26.2 -28.7 80 4 5   101.41   -31 LegendNANA
23:00 -26.0 -28.6 79 3 4   101.43   -30 LegendNANA

Notes on Data Quality.

Legend

  • E = Estimated
  • M = Missing
  • NA = Not Available
Date modified: